Regional Weather Roundup
Issued by NWS

Home | Current Version | Previous Version | Graphics & Text | Print | Product List | Glossary On
Versions: 1 2 3 4 5 6 7 8 9 10 11 12 13 14 15 16 17 18 19 20 21 22 23 24 25 26 27 28 29 30 31 32 33 34 35 36 37 38 39 40 41 42 43 44 45 46 47 48 49 50
000
ASUS45 KCYS 010610
RWRWY

WYOMING REGIONAL WEATHER ROUNDUP
NATIONAL WEATHER SERVICE CHEYENNE WY
1100 PM MST SAT JAN 31 2015

NOTE:  "FAIR" INDICATES FEW OR NO CLOUDS BELOW 12,000 FEET
WITH NO SIGNIFICANT WEATHER AND/OR OBSTRUCTIONS TO VISIBILITY.

WYZ001-010700-
YELLOWSTONE NATIONAL PARK

CITY           SKY/WX    TMP DP  RH WIND       PRES   REMARKS
LK YELLOWSTONE   N/A      6   3  87 CALM      30.09R
6HR MIN TEMP:   5; 6HR MAX TEMP:  24;

W YELLOWSTONE  NOT AVBL

$$
WYZ002>013-054>058-071-098>099-010700-
NORTHERN WYOMING

CITY           SKY/WX    TMP DP  RH WIND       PRES   REMARKS
JACKSON        FAIR      16  10  79 NE7       30.10R WCI   6
CODY           CLOUDY    16  14  93 N12       30.14S WCI   3
GREYBULL       FAIR      19  11  70 W17G25    30.16R WCI   4
6HR MIN TEMP:  19; 6HR MAX TEMP:  29;

WORLAND        CLOUDY    22  15  75 NW13G18   30.17R WCI  10
6HR MIN TEMP:  21; 6HR MAX TEMP:  30;

SHERIDAN       CLOUDY    15   8  73 NW20      30.23R WCI  -2
6HR MIN TEMP:  15; 6HR MAX TEMP:  26; 6HR PCP: TRACE;

BUFFALO        FAIR      11   7  84 N30G39    30.11R WCI -11
6HR MIN TEMP:  11; 6HR MAX TEMP:  23; 6HR PCP: TRACE;

GILLETTE       CLOUDY    16  12  84 N22       30.13R FOG     WCI  -2
6HR MIN TEMP:  16; 6HR MAX TEMP:  27; 6HR PCP:  0.01;

HULETT           N/A    N/A N/A N/A MISG        N/A
NEWCASTLE      FLURRIES  21  18  86 NW23      30.06R WCI   5

$$
WYZ014>020-022>026-101>103-010700-
CENTRAL WYOMING

CITY           SKY/WX    TMP DP  RH WIND       PRES   REMARKS
BIG PINEY      FAIR      21   8  57 N14       30.05R WCI   8
6HR MIN TEMP:  21; 6HR MAX TEMP:  34;

PINEDALE       FAIR      12   5  73 NW13      30.05R WCI  -3
DUBOIS         FAIR      23  10  58 W15       30.01R WCI  10
LANDER         MOCLDY    23  18  81 NW3       30.06R
6HR MIN TEMP:  23; 6HR MAX TEMP:  36;

RIVERTON       CLOUDY    24  17  74 NW9       30.07F WCI  14
6HR MIN TEMP:  24; 6HR MAX TEMP:  37;

CASPER         CLOUDY    20  14  77 N10       30.09R WCI   9
6HR MIN TEMP:  20; 6HR MAX TEMP:  33; 6HR PCP:  0.01;

DOUGLAS        CLOUDY    21  13  71 N16G28    30.09R WCI   7
6HR MIN TEMP:  21; 6HR MAX TEMP:  37; 6HR PCP: TRACE;


$$
WYZ021-027>030-104>119-010700-
SOUTHERN WYOMING

CITY           SKY/WX    TMP DP  RH WIND       PRES   REMARKS
EVANSTON       FAIR      25  18  74 SW9       30.11R WCI  15
6HR MIN TEMP:  25; 6HR MAX TEMP:  39;

FORT BRIDGER   FAIR      30  15  54 W7        30.11S WCI  23
ROCK SPRINGS   FAIR      22  17  81 E8        30.06R WCI  12
6HR MIN TEMP:  22; 6HR MAX TEMP:  39;

DIXON          FAIR      26  19  74 CALM      30.03R
RAWLINS        FAIR      20  16  84 N5        30.02R WCI  13
6HR MIN TEMP:  20; 6HR MAX TEMP:  38;

SARATOGA       CLOUDY    25  23  93 NW12      30.00R WCI  14
LARAMIE        FLURRIES  22  20  92 N10       29.93R WCI  11
6HR MIN TEMP:  22; 6HR MAX TEMP:  31; 6HR PCP: TRACE;

CHEYENNE       MIX PCPN  25  20  81 N25G36    29.93R WCI   9
6HR MIN TEMP:  25; 6HR MAX TEMP:  31; 6HR PCP: TRACE;

TORRINGTON     CLOUDY    27  20  75 N15G24    30.01R WCI  15
6HR MIN TEMP:  25; 6HR MAX TEMP:  37; 6HR PCP: TRACE;

PINE BLUFFS    CLOUDY    27  27 100 N9G18     29.95R WCI  17

$$


USA.gov is the U.S. government's official web portal to all federal, state and local government web resources and services.